Wind_Speed
20 21 21 21 21 20 20 19 17 15 13 12 11 10 10 9 8 8 7 6 6 6 5 4 3 3 2 2 2 2 2 2 3 4 4 4 3 3 4 5 5 4
19 20 21 22 22 22 21 20 18 17 15 13 12 12 11 11 10 9 8 7 6 6 5 5 4 4 3 2 2 2 2 1 2 3 3 3 3 3 3 4 4 4
19 19 20 22 23 23 22 21 20 18 17 15 14 13 13 12 11 11 10 8 7 6 6 6 5 5 4 3 2 2 1 1 1 1 2 2 2 2 2 3 3 3
21 19 18 20 22 24 24 23 22 20 18 17 15 14 14 14 13 12 12 10 9 7 7 7 6 6 5 4 4 3 3 2 1 1 1 1 2 1 2 2 3 3
21 21 19 19 21 24 25 25 24 22 20 18 17 16 15 15 14 14 13 12 11 10 8 8 7 7 7 6 6 5 5 4 3 3 2 2 2 2 1 1 2 3
21 21 22 21 21 22 25 26 25 24 22 21 19 18 17 17 16 15 14 13 13 12 11 9 9 8 8 8 7 7 6 6 5 4 4 4 3 3 2 2 2 2
21 21 22 22 22 22 23 25 26 26 24 23 22 21 20 19 18 17 16 15 14 13 12 12 11 10 9 9 8 8 8 7 7 6 6 6 5 5 4 4 4 4
23 22 22 23 23 23 23 24 25 26 26 25 24 24 23 21 20 19 18 17 16 15 14 14 13 12 11 10 9 9 9 9 9 8 7 7 7 7 6 6 6 6
25 24 23 23 24 24 24 23 24 25 26 26 25 25 24 23 22 21 20 20 19 18 17 16 15 14 13 12 11 10 10 10 10 10 9 8 8 7 7 7 7 8
27 26 25 25 24 24 24 24 24 25 26 26 26 26 25 24 23 23 22 22 21 20 19 18 17 16 15 14 13 12 12 12 12 11 10 9 9 8 8 8 7 8
29 28 27 26 25 24 24 24 25 26 26 26 26 26 26 25 25 25 24 24 23 21 20 20 19 19 18 17 16 15 14 14 13 13 12 11 10 10 9 9 9 9
30 29 28 27 26 25 25 25 26 27 27 27 27 26 26 25 26 26 26 25 24 23 22 22 22 22 21 20 19 19 18 17 16 15 14 13 12 12 11 11 11 11
31 30 29 28 27 27 26 26 26 27 28 28 28 28 27 26 26 25 26 25 25 24 23 23 24 24 24 23 22 22 21 21 19 18 17 15 14 14 14 14 13 13
31 31 30 29 29 28 28 27 27 27 28 29 29 30 29 28 27 26 26 26 25 25 24 24 25 26 26 25 25 25 24 23 22 21 20 19 18 17 17 17 16 16
30 31 31 30 30 30 29 29 28 28 27 28 29 30 31 30 29 29 28 28 27 26 25 25 25 26 26 25 25 25 25 25 24 23 23 22 21 21 20 20 19 18
30 30 30 31 31 31 30 30 30 29 28 28 28 29 30 31 31 31 31 30 30 29 28 28 27 26 25 25 25 25 25 25 25 25 25 24 24 24 23 23 22 22
29 30 30 30 31 31 31 31 31 31 30 29 29 29 29 30 31 32 32 32 32 31 31 31 30 28 26 26 26 25 25 26 26 26 26 26 26 26 26 25 25 24
28 29 30 30 30 31 31 31 31 32 32 31 31 30 30 30 31 31 31 31 32 32 32 33 32 30 28 28 27 27 27 27 27 27 28 28 28 28 27 27 27 27
27 28 29 30 31 31 32 32 33 33 33 33 32 32 31 31 31 30 30 31 31 31 31 32 32 30 30 29 29 28 28 28 29 29 29 29 29 29 28 28 28 28
28 28 29 29 30 32 33 33 34 34 34 33 33 33 33 33 31 31 31 30 30 30 30 30 30 29 29 29 29 29 29 29 30 30 30 30 30 30 29 29 28 28
30 29 29 30 30 32 33 34 34 35 35 35 35 35 34 33 33 33 32 31 31 30 29 29 28 26 26 27 27 28 28 29 30 30 30 31 31 31 30 30 29 28
31 30 30 30 30 31 32 32 34 35 35 35 36 36 36 35 34 33 32 31 31 30 30 29 27 26 26 25 25 26 27 29 30 30 30 31 31 31 31 30 29 29
31 31 31 30 30 31 30 30 31 33 35 36 36 36 37 36 35 34 32 32 32 31 31 30 28 26 26 26 25 25 27 28 28 29 30 30 30 30 30 31 30 29
29 32 33 31 30 30 30 30 29 29 31 35 37 37 36 35 35 34 33 33 33 33 32 31 29 28 28 27 27 27 28 28 28 29 29 29 29 29 30 30 30 29
28 30 33 33 32 31 31 32 31 29 30 33 34 36 36 36 34 33 33 33 33 33 32 32 30 29 29 29 28 28 29 28 28 29 30 29 29 29 29 30 30 29
29 30 32 33 33 32 32 33 34 33 34 33 32 34 36 36 34 34 33 34 33 33 32 31 30 28 28 29 29 29 30 30 30 30 29 28 28 29 29 30 30 29
Wind_Direction
202 204 208 211 213 213 209 206 203 198 194 194 195 193 193 196 193 186 185 186 190 191 189 186 179 166 153 143 131 116 115 114 108 106 108 118 138 145 136 134 137 145
203 203 205 208 211 214 213 210 206 202 198 196 196 198 200 201 198 193 189 190 195 198 199 200 201 195 184 172 155 138 145 148 120 111 114 123 140 150 149 143 145 157
208 204 204 206 209 213 216 214 210 205 203 201 199 199 202 203 201 198 195 195 196 201 204 208 213 216 212 203 193 187 193 191 159 127 118 125 143 162 174 168 167 177
212 209 205 204 207 211 215 217 214 210 207 206 205 204 206 206 205 203 201 200 200 202 207 209 214 222 226 226 223 224 230 239 244 231 184 163 164 168 185 189 181 190
213 213 210 207 206 209 214 217 217 214 212 210 210 210 210 210 209 208 207 207 205 204 207 211 215 220 226 231 234 235 238 241 244 246 240 220 207 194 193 211 203 208
213 214 214 212 209 209 213 217 219 218 217 215 214 214 214 214 214 214 214 214 213 211 208 211 214 218 222 226 232 237 241 241 238 238 241 237 232 224 218 230 241 241
214 215 216 216 213 211 212 215 218 219 220 219 219 218 217 218 218 219 220 220 219 218 215 213 214 217 219 220 224 231 238 243 240 236 238 239 237 233 227 230 241 253
216 216 217 218 217 215 213 213 216 218 220 221 223 223 222 222 221 222 224 225 224 224 223 220 218 219 220 219 220 224 230 237 240 240 240 239 237 234 230 228 233 245
218 218 218 219 220 219 216 214 215 217 219 222 224 226 227 226 225 225 226 228 228 227 228 227 224 223 223 219 219 223 226 229 233 237 239 240 239 239 238 233 232 240
221 220 220 221 221 222 220 218 217 217 219 221 223 227 229 229 229 228 227 228 229 228 229 231 230 228 227 223 221 223 225 227 229 230 232 234 236 239 243 244 241 242
223 222 222 221 222 223 222 221 220 219 220 221 223 226 229 231 232 232 231 230 230 229 230 233 233 231 230 227 225 226 227 228 228 228 229 228 228 232 239 245 248 250
224 224 223 222 222 223 223 223 223 222 222 222 224 226 227 229 231 233 234 233 232 231 231 233 234 233 231 229 228 229 230 231 231 231 231 231 231 231 235 240 245 251
225 225 225 224 224 224 224 224 225 224 224 224 224 226 226 227 229 231 233 234 234 234 233 233 234 234 233 231 230 230 230 231 232 233 234 235 236 236 238 240 244 249
225 226 227 227 227 227 226 226 226 226 226 225 226 227 227 228 228 229 231 232 234 234 233 232 232 233 233 232 232 232 232 232 233 233 235 236 237 239 240 242 244 248
226 228 229 229 229 229 228 227 227 228 228 227 227 227 229 230 231 231 231 232 233 234 234 233 233 232 233 233 234 235 236 236 236 236 237 238 239 241 242 243 244 246
225 228 230 231 231 231 230 229 229 229 229 229 228 228 229 230 232 233 233 233 234 235 236 237 237 236 235 234 235 236 237 239 240 240 241 241 241 242 243 245 246 247
223 225 228 230 231 232 231 231 231 231 230 230 230 229 229 229 231 233 235 235 236 236 237 239 240 240 240 238 237 237 238 239 240 241 242 243 243 244 244 245 246 247
220 223 226 228 231 233 234 234 234 233 232 231 231 231 230 230 230 232 234 236 237 237 238 240 242 243 242 242 241 241 240 241 241 240 241 242 244 245 245 245 246 246
219 221 224 226 229 233 235 237 237 237 236 235 234 234 233 233 233 233 234 235 237 239 240 241 243 243 243 244 244 243 243 244 244 243 242 243 244 245 246 246 246 246
219 221 222 224 227 230 232 234 237 238 239 238 238 237 237 236 236 235 235 236 238 239 241 242 243 243 243 244 244 244 244 244 245 245 245 244 244 245 246 246 247 247
219 220 221 223 225 227 230 232 234 235 237 238 240 241 240 240 239 239 238 238 239 240 241 243 243 243 243 244 244 244 244 244 245 245 245 246 245 245 246 247 248 248
223 222 224 225 226 226 227 229 232 234 235 236 238 240 241 242 242 241 241 240 241 242 243 244 244 245 245 245 246 246 246 246 246 246 246 246 246 246 247 248 249 249
227 227 228 231 232 231 229 226 227 230 233 235 237 238 240 242 243 243 243 243 243 242 243 244 244 245 246 247 247 247 248 249 249 249 249 249 248 248 247 248 249 251
234 231 231 234 236 236 233 229 226 226 229 233 235 237 239 240 241 243 243 243 243 243 243 243 242 243 244 244 245 246 247 249 250 251 251 251 251 250 249 250 251 252
239 234 234 237 238 236 234 232 233 232 231 230 228 230 235 237 238 239 241 241 243 243 244 244 242 241 242 243 243 244 246 247 249 249 250 251 252 252 252 252 253 253
237 235 237 240 241 239 237 235 238 242 246 244 232 223 225 230 232 236 238 240 243 244 244 245 243 241 242 242 242 243 244 246 247 248 248 249 251 252 252 252 253 253
Height
3226 3228 3230 3232 3234 3236 3237 3238 3240 3242 3243 3244 3245 3246 3247 3248 3250 3250 3251 3252 3253 3254 3255 3255 3256 3256 3257 3258 3258 3259 3259 3260 3260 3260 3260 3261 3261 3261 3262 3262 3263 3263
3224 3226 3228 3230 3232 3234 3236 3237 3239 3240 3242 3243 3244 3245 3246 3247 3249 3250 3250 3251 3252 3253 3254 3255 3256 3256 3257 3258 3258 3259 3259 3260 3260 3260 3261 3261 3261 3261 3262 3262 3263 3263
3223 3225 3227 3229 3231 3233 3235 3236 3238 3239 3240 3241 3243 3244 3245 3246 3247 3248 3249 3250 3251 3252 3253 3254 3255 3256 3257 3257 3258 3258 3259 3260 3260 3261 3261 3261 3261 3261 3262 3262 3263 3263
3221 3223 3225 3227 3229 3231 3233 3234 3236 3237 3239 3240 3241 3242 3244 3245 3246 3247 3248 3249 3250 3251 3252 3253 3254 3255 3256 3257 3257 3258 3259 3259 3260 3261 3261 3261 3261 3261 3261 3262 3262 3262
3220 3221 3223 3225 3227 3229 3230 3232 3234 3236 3237 3239 3240 3241 3242 3244 3245 3246 3247 3248 3249 3250 3251 3252 3253 3254 3255 3256 3256 3257 3258 3259 3260 3260 3261 3261 3261 3261 3261 3261 3262 3262
3218 3219 3221 3223 3225 3226 3228 3230 3232 3234 3235 3237 3238 3239 3240 3242 3243 3245 3246 3247 3248 3248 3249 3250 3251 3252 3253 3254 3255 3256 3257 3258 3259 3260 3260 3260 3261 3261 3261 3261 3261 3261
3216 3218 3219 3221 3222 3224 3226 3228 3230 3232 3233 3235 3236 3237 3238 3240 3241 3243 3244 3245 3246 3247 3248 3249 3250 3251 3252 3253 3254 3255 3256 3256 3257 3258 3259 3259 3260 3260 3260 3260 3260 3260
3214 3216 3217 3219 3220 3222 3224 3225 3227 3229 3231 3232 3234 3235 3237 3238 3239 3241 3242 3243 3245 3246 3247 3247 3248 3249 3250 3251 3252 3253 3254 3255 3256 3257 3257 3258 3258 3259 3259 3260 3260 3260
3212 3213 3215 3216 3218 3220 3221 3223 3225 3227 3229 3230 3232 3233 3235 3236 3237 3238 3240 3241 3242 3244 3245 3246 3247 3247 3248 3250 3251 3252 3253 3253 3254 3255 3256 3256 3257 3257 3258 3258 3259 3259
3209 3211 3213 3214 3216 3218 3220 3222 3223 3225 3226 3228 3230 3231 3233 3234 3235 3236 3237 3239 3240 3242 3243 3244 3245 3246 3247 3248 3249 3250 3251 3252 3252 3253 3254 3255 3255 3255 3256 3257 3257 3258
3207 3209 3210 3212 3214 3216 3218 3220 3221 3223 3224 3226 3227 3229 3230 3232 3233 3234 3235 3236 3238 3240 3241 3242 3243 3244 3245 3246 3247 3248 3249 3250 3250 3251 3252 3253 3253 3254 3254 3255 3255 3256
3204 3206 3208 3210 3212 3214 3216 3217 3219 3220 3222 3224 3225 3226 3228 3229 3230 3231 3233 3234 3236 3237 3239 3240 3241 3241 3242 3243 3244 3245 3246 3247 3248 3249 3250 3251 3251 3252 3252 3253 3253 3254
3201 3203 3205 3208 3210 3211 3213 3215 3216 3218 3220 3221 3223 3224 3225 3226 3228 3229 3230 3232 3233 3234 3236 3237 3238 3239 3240 3241 3241 3242 3243 3245 3246 3247 3248 3248 3249 3250 3250 3251 3251 3252
3199 3201 3203 3205 3207 3209 3211 3212 3214 3215 3217 3218 3220 3221 3223 3224 3225 3226 3228 3229 3230 3231 3233 3234 3235 3236 3237 3238 3239 3239 3241 3242 3243 3244 3245 3246 3247 3247 3248 3248 3249 3250
3196 3198 3200 3202 3204 3206 3207 3209 3211 3212 3214 3216 3217 3218 3220 3221 3223 3224 3225 3226 3227 3229 3230 3231 3232 3233 3234 3235 3236 3237 3238 3239 3240 3241 3242 3243 3244 3245 3245 3246 3246 3247
3193 3195 3197 3199 3201 3203 3205 3206 3208 3210 3211 3213 3214 3216 3217 3218 3220 3221 3222 3223 3224 3225 3227 3227 3228 3230 3231 3233 3233 3234 3235 3236 3237 3238 3239 3240 3241 3242 3243 3243 3244 3244
3190 3192 3194 3196 3198 3200 3202 3203 3205 3207 3208 3210 3211 3213 3214 3215 3216 3217 3218 3220 3221 3222 3223 3224 3225 3227 3229 3230 3231 3231 3232 3233 3234 3235 3236 3237 3238 3239 3240 3240 3241 3242
3187 3189 3191 3193 3195 3197 3199 3201 3202 3203 3205 3206 3208 3209 3211 3212 3213 3214 3215 3217 3218 3219 3220 3220 3222 3223 3225 3226 3227 3229 3229 3230 3231 3231 3232 3233 3234 3235 3236 3237 3238 3238
3183 3186 3188 3190 3192 3194 3196 3197 3199 3200 3202 3203 3205 3206 3207 3209 3210 3211 3212 3213 3214 3215 3216 3217 3218 3220 3222 3223 3224 3225 3226 3227 3227 3228 3229 3230 3230 3231 3232 3233 3234 3235
3179 3181 3183 3186 3189 3190 3192 3193 3195 3197 3199 3200 3202 3203 3204 3205 3207 3208 3209 3210 3211 3212 3213 3214 3215 3217 3218 3219 3221 3222 3223 3223 3224 3225 3225 3226 3227 3228 3229 3230 3230 3231
3173 3176 3178 3180 3183 3185 3187 3189 3191 3193 3195 3196 3198 3199 3200 3202 3203 3204 3205 3207 3208 3209 3210 3210 3212 3214 3215 3216 3217 3218 3219 3220 3220 3221 3222 3222 3223 3224 3225 3226 3227 3228
3171 3173 3175 3177 3178 3179 3180 3183 3187 3189 3191 3192 3193 3195 3196 3198 3199 3200 3201 3203 3204 3205 3206 3207 3209 3210 3211 3212 3214 3215 3215 3216 3216 3217 3218 3218 3220 3221 3222 3222 3223 3224
3169 3170 3172 3174 3176 3177 3177 3178 3181 3184 3187 3188 3189 3190 3192 3193 3195 3197 3198 3199 3200 3200 3201 3203 3205 3207 3208 3209 3210 3211 3211 3212 3212 3213 3214 3215 3216 3217 3218 3219 3220 3220
3166 3168 3169 3170 3172 3175 3177 3177 3177 3178 3180 3183 3185 3187 3188 3190 3191 3192 3193 3194 3195 3196 3197 3199 3201 3202 3203 3204 3206 3207 3207 3208 3209 3209 3210 3211 3212 3213 3214 3215 3216 3217
3162 3164 3166 3167 3168 3170 3173 3176 3178 3178 3177 3177 3179 3181 3183 3185 3187 3187 3189 3190 3191 3192 3193 3194 3196 3198 3199 3200 3201 3202 3203 3204 3205 3205 3206 3207 3209 3210 3210 3211 3212 3213
3158 3160 3162 3163 3165 3167 3169 3172 3176 3177 3176 3175 3174 3175 3176 3179 3181 3183 3185 3186 3187 3188 3189 3190 3192 3194 3195 3196 3197 3198 3199 3200 3200 3201 3202 3204 3205 3206 3207 3207 3208 3209